ATLAS 5 CENTAUR DEB, 44006

Orbit data source: Space-Track

ATLAS 5 CENTAUR DEB, 44006 is space debris in HEO originally from a launch on Wed, 17 Sep 2014 UTC launched from the Air Force Eastern Test Range (AFETR). Debris objects in space refer to the collection of defunct objects orbiting the Earth. Examples of debris include non-operational satellites, rocket bodies, and fragments generated from explosions, collisions, or faulty payload assembly.

Loading next visibility...
Identifier
44006, 2014-055BM
Orbit
HEO
Country
Flag of USUS
Related business
Flag of USUnited Launch Alliance/Lockheed Martin (US)
Manufacturer
Unknown
Mission
Spacecraft
Bus & Motor
Unknown
Mass
Unknown
Launch date (UTC)
2014-09-17 (11 years ago)
Launch vehicle
Unknown
Launch site
Air Force Eastern Test Range (AFETR)
Object type
Payload
Rocket body
Debris
Shape & HBR
Unknown shape, 1.1 m
Radar Cross Section
Small (<0.1 m²)

Expand to show TLE details & history
Last TLE update: 2 days ago

TLE from 2 days ago
0 ATLAS 5 CENTAUR DEB
1 44006U 14055BM  26070.87529405 -.00000132  00000-0  00000+0 0  9990
2 44006  20.4662 137.1289 4900830 179.8850 180.2916  1.88615692 51413
Epoch: 2026-03-11T21:00Z
TLE epoch observation values (Epoch: 2026-03-11T21:00:25.405Z)
Latitude
0.00004°
Longitude
12.51562°
Altitude
34,859.529 km
Speed
2.22 km/s
True Right ascension
09h 08m 37s
True Declination
0° 00' 00"
Sunlit
Object was in daylight at epoch
Visualization orbit readout
Latitude
Unknown
Longitude
Unknown
Altitude
Unknown
Speed
Unknown
Apparent Right ascension
Unknown
Apparent Declination
Unknown
Sunlit
N/A
Visualization observer readout
Local Sidereal Time
14:17:28
Azimuth
Unknown
Elevation
Unknown
Doppler factor
Unknown
Orbital elements
Apogee altitude
34,856.118 km
Perigee altitude
7,732.518 km
Semi-major axis
27,672.455 km
Eccentricity
0.49008
Inclination
20.4662°
RAAN
137.1289°
Arg. of periapsis
179.885°
True anomaly
180.11448°
Mean anomaly
180.2916°
Eccentric anomaly
180.19569°
Mean motion
0.47149 °/min
Orbital period
763.54 mins
BSTAR
0
Loading maneuver chart data...
Computing Atmospheric mass density...

Documentation

Showing up to 5 results
|